Fargo, ND

4:57 AM CDT on August 27, 2016 (GMT -0500)
Hector International

Weather History for KFAR - December, 2013

Change the Weather History Date:

Wednesday, December 18, 2013

  Actual Average Record
Temperature  
Mean Temperature 16 °F 13 °F  
Max Temperature 30 °F 21 °F 55 °F (2011)
Min Temperature 2 °F 5 °F -29 °F (1884)
Degree Days  
Heating Degree Days 49 52  
Month to date heating degree days 1059 880  
Since 1 July heating degree days 2900 2842  
Cooling Degree Days 0 0  
Month to date cooling degree days 0 0  
Year to date cooling degree days 699 551  
Moisture  
Dew Point 10 °F    
Average Humidity 75    
Maximum Humidity 84    
Minimum Humidity 65    
Precipitation  
Precipitation T in 0.03 in 0.34 in (1939)
Month to date precipitation 0.96 0.47  
Year to date precipitation 31.85 22.25  
Snow  
Snow T in 0.40 in 2.90 in (1992)
Month to date snowfall 12.3 6.2  
Since 1 July snowfall 12.6 14.8  
Snow Depth 9.00 in    
Sea Level Pressure  
Sea Level Pressure 29.82 in    
Wind  
Wind Speed 14 mph (NW)    
Max Wind Speed 29 mph    
Max Gust Speed 32 mph    
Visibility 7 miles    
Events Snow    
T = Trace of Precipitation, MM = Missing Value Source: NWS Daily Summary

Daily Weather History Graph

Daily Weather History Graph

Search for Another Location

Airport or City:

Trip Planner

Search our weather history database for the weather conditions in past years. The results will help you decide how hot, cold, wet, or windy it might be!

Date:

Astronomy

Dec. 18, 2013 Rise Set
Actual Time 8:08 AM CST 4:39 PM CST
Civil Twilight 7:32 AM CST 5:15 PM CST
Nautical Twilight 6:54 AM CST 5:54 PM CST
Astronomical Twilight 6:17 AM CST 6:31 PM CST
Moon 6:18 PM CST (12/18) 8:43 AM CST (12/18)
Length of Visible Light 9h 42m
Length of Day
8h 31m
Full, 98% of the Moon is Illuminated
Dec 18
Full
Dec 25
Last Quarter
Jan 1
New
Jan 7
First Quarter
Jan 15
Full

Hourly Weather History & Observations

Time (CST) Temp. Windchill Dew Point Humidity Pressure Visibility Wind Dir Wind Speed Gust Speed Precip Events Conditions
12:53 AM 14.0 °F -0.8 °F 8.1 °F 77% 29.92 in 10.0 mi SSE 13.8 mph - N/A   Partly Cloudy
1:53 AM 16.0 °F 2.3 °F 10.0 °F 77% 29.86 in 10.0 mi SE 12.7 mph - N/A   Clear
2:53 AM 19.9 °F 4.8 °F 12.0 °F 71% 29.81 in 10.0 mi SE 18.4 mph 24.2 mph N/A   Overcast
3:53 AM 21.0 °F 6.6 °F 12.0 °F 68% 29.76 in 10.0 mi SSE 17.3 mph 21.9 mph N/A   Clear
4:53 AM 23.0 °F 11.1 °F 12.9 °F 65% 29.71 in 10.0 mi South 12.7 mph 23.0 mph N/A   Clear
5:53 AM 21.9 °F 7.8 °F 12.9 °F 68% 29.69 in 10.0 mi South 17.3 mph 26.5 mph N/A   Clear
6:53 AM 21.9 °F 8.7 °F 12.9 °F 68% 29.66 in 10.0 mi South 15.0 mph - N/A   Clear
7:53 AM 19.9 °F 6.7 °F 12.9 °F 74% 29.65 in 10.0 mi South 13.8 mph - N/A   Clear
8:53 AM 21.0 °F 9.3 °F 14.0 °F 74% 29.65 in 10.0 mi South 11.5 mph - N/A   Clear
9:53 AM 21.0 °F 8.6 °F 14.0 °F 74% 29.65 in 10.0 mi South 12.7 mph - N/A   Clear
10:53 AM 21.9 °F 11.0 °F 16.0 °F 78% 29.66 in - SSW 10.4 mph - N/A   Unknown
11:53 AM 25.0 °F 16.3 °F 18.0 °F 75% 29.64 in 10.0 mi WSW 8.1 mph - N/A   Clear
12:53 PM 26.1 °F 18.4 °F 19.0 °F 75% 29.64 in 10.0 mi SW 6.9 mph - N/A   Clear
1:53 PM 28.0 °F 20.0 °F 19.9 °F 72% 29.62 in 10.0 mi WSW 8.1 mph - N/A   Clear
2:53 PM 28.9 °F 23.9 °F 21.0 °F 72% 29.64 in 10.0 mi West 4.6 mph - N/A   Clear
3:53 PM 25.0 °F 19.3 °F 19.0 °F 78% 29.70 in 10.0 mi NW 4.6 mph - N/A   Clear
4:53 PM 19.9 °F 10.1 °F 15.1 °F 81% 29.72 in 10.0 mi North 8.1 mph - N/A   Clear
5:53 PM 18.0 °F 2.6 °F 12.0 °F 78% 29.77 in 10.0 mi NNW 17.3 mph - N/A   Clear
6:53 PM 14.0 °F -5.1 °F 9.0 °F 80% 29.83 in 5.0 mi NNW 24.2 mph 32.2 mph N/A   Haze
7:02 PM 12.2 °F -7.1 °F 8.6 °F 85% 29.78 in 7.0 mi NNW 23.0 mph - N/A   Mostly Cloudy
7:31 PM 12.2 °F -7.1 °F 6.8 °F 79% 29.82 in 8.0 mi North 23.0 mph 29.9 mph N/A   Overcast
7:53 PM 12.0 °F -5.1 °F 7.0 °F 80% 29.89 in 9.0 mi North 17.3 mph - N/A   Overcast
8:21 PM 12.2 °F -5.3 °F 6.8 °F 79% 29.86 in 4.0 mi North 18.4 mph - 0.00 in Snow Light Snow
8:49 PM 10.4 °F -7.7 °F 6.8 °F 85% 29.89 in 4.0 mi NNW 18.4 mph - 0.00 in Snow Light Snow
8:53 PM 10.9 °F -7.0 °F 6.1 °F 81% 29.96 in 2.5 mi NNW 18.4 mph - 0.00 in Snow Light Snow
9:04 PM 10.4 °F -9.5 °F 6.8 °F 85% 29.91 in 4.0 mi NNW 23.0 mph - 0.00 in   Overcast
9:18 PM 10.4 °F -9.9 °F 6.8 °F 85% 29.93 in 1.8 mi NNW 24.2 mph - 0.00 in Snow Light Snow
9:31 PM 10.4 °F -9.9 °F 5.0 °F 79% 29.94 in 3.0 mi NNW 24.2 mph - 0.00 in Snow Light Snow
9:41 PM 10.4 °F -9.5 °F 5.0 °F 79% 29.94 in 3.0 mi NNW 23.0 mph - 0.00 in   Overcast
9:53 PM 10.0 °F -10.8 °F 5.0 °F 80% 30.01 in 3.0 mi North 25.3 mph - 0.00 in Snow Light Snow
10:04 PM 10.4 °F -10.3 °F 3.2 °F 73% 29.96 in 2.5 mi NNW 25.3 mph - 0.00 in Snow Light Snow
10:11 PM 8.6 °F -11.9 °F 3.2 °F 79% 29.97 in 1.2 mi NNW 23.0 mph - 0.00 in Snow Light Snow
10:22 PM 8.6 °F -11.9 °F 3.2 °F 79% 29.97 in 3.0 mi North 23.0 mph - 0.00 in   Overcast
10:53 PM 7.0 °F -13.6 °F 1.9 °F 80% 30.04 in 4.0 mi North 21.9 mph 29.9 mph 0.00 in   Haze
11:00 PM 6.8 °F -14.7 °F -0.4 °F 72% 29.99 in 5.0 mi North 24.2 mph 29.9 mph N/A   Haze
11:11 PM 5.0 °F -16.2 °F -0.4 °F 78% 30.00 in 6.0 mi North 21.9 mph - N/A   Haze
11:33 PM 3.2 °F -17.6 °F -2.2 °F 78% 30.01 in 9.0 mi North 19.6 mph - N/A   Partly Cloudy
11:53 PM 3.0 °F -18.8 °F -2.9 °F 76% 30.09 in 9.0 mi NNW 21.9 mph - N/A   Partly Cloudy